STARLINK-1828, 46725

Orbit data source: Space-Track

STARLINK-1828, 46725 is a payload satellite owned by SpaceX/Seattle (US) in LEO that was launched on Sun, 18 Oct 2020 UTC via an FALCON 9 launch vehicle from the Air Force Eastern Test Range (AFETR). Payload-class satellites include a variety of spacecraft equipped with specific instruments for various scientific and technological missions. These include communications satellites like Starlink; space stations such as the ISS; scientific satellites like the Hubble; Earth observation satellites from companies like Planet Labs, Umbra, and HawkEye 360; GPS; miniature CubeSats for education and research; and military/defense satellites.

Loading next visibility...
Identifier
46725, 2020-073BH
Orbit
LEO
Country
Flag of USUS
Related business
Manufacturer
SpaceX/Seattle
Mission
Partially operational Commercial Communications
Bus & Motor
STARLINK, Unknown motor
Mass
260 kg wet, ~248 kg dry
Launch date (UTC)
2020-10-18 (6 years ago)
Launch vehicle
FALCON 9
Launch site
Air Force Eastern Test Range (AFETR)
Object type
Payload
Rocket body
Debris
Shape & HBR
Box + 1 Pan, 10.1 m
Radar Cross Section
13.562 m², Large (>1 m²)

Expand to show TLE details & history
Last TLE update: 3 hours ago

TLE from 3 hours ago
0 STARLINK-1828
1 46725U 20073BH  26256.66668981  .00169328  21679-4  52914-3 0  9999
2 46725  53.0405  26.5902 0006927 312.2101 329.6772 15.91172083  6022
Epoch: 2026-09-13T16:00Z
TLE epoch observation values (Epoch: 2026-09-13T16:00:01.999Z)
Latitude
-51.61314°
Longitude
83.11338°
Altitude
312.855 km
Speed
7.722 km/s
True Right ascension
21h 03m 07s
True Declination
-51° 26' 04"
Sunlit
Object was in full shadow at epoch
Visualization orbit readout
Latitude
Unknown
Longitude
Unknown
Altitude
Unknown
Speed
Unknown
Apparent Right ascension
Unknown
Apparent Declination
Unknown
Sunlit
N/A
Visualization observer readout
Local Sidereal Time
11:51:39
Azimuth
Unknown
Elevation
Unknown
Doppler factor
Unknown
Orbital elements
Apogee altitude
303.91 km
Perigee altitude
294.659 km
Semi-major axis
6,677.422 km
Eccentricity
0.00069
Inclination
53.0405°
RAAN
26.5902°
Arg. of periapsis
312.2101°
True anomaly
329.63709°
Mean anomaly
329.6772°
Eccentric anomaly
329.65715°
Mean motion
3.97768 °/min
Orbital period
90.5 mins
BSTAR
0.00052914
Loading maneuver chart data...
Computing Atmospheric mass density...

Documentation

Showing up to 5 results
|